Theta_e
346 342 347 348 347 347 348 348 347 347 347 346 344 343 344 343 343 340 343 347 345 342 343 344 347 346 345 343 344 344 344 339 339 340 339 342 340 339 337 339 340 336 332
343 342 346 346 345 344 344 345 346 345 345 348 347 346 345 344 345 346 345 347 346 345 344 344 344 347 346 342 344 344 344 343 339 341 338 341 340 341 338 336 337 339 339
347 345 346 345 343 344 344 344 346 344 345 345 346 344 343 344 345 344 345 345 347 347 347 346 345 343 343 344 341 338 342 343 341 342 340 339 340 338 339 339 338 334 337
346 338 346 347 345 346 345 343 341 342 343 342 340 342 343 341 342 340 344 344 346 346 347 347 345 345 343 342 341 339 336 341 338 342 342 341 339 337 338 338 339 339 336
345 342 347 346 346 346 345 345 345 344 343 341 338 335 333 334 336 338 343 343 345 345 345 345 345 345 345 344 343 341 339 337 339 340 340 340 340 340 338 337 337 338 338
346 347 347 348 347 346 345 346 345 344 343 341 337 336 338 339 337 338 343 345 345 346 346 345 345 345 345 346 345 344 343 341 338 337 339 338 339 340 339 339 339 337 337
343 338 343 345 346 345 345 345 345 345 343 340 336 337 336 336 342 343 343 343 344 344 346 345 346 346 347 345 345 346 345 344 342 338 336 338 340 340 340 340 339 339 339
346 347 347 346 343 343 342 343 343 343 343 341 339 337 338 337 338 339 341 341 342 343 342 344 345 346 347 347 346 345 345 346 344 343 341 339 339 341 341 340 338 340 340
346 346 345 344 343 343 344 344 343 343 342 342 342 339 336 339 337 339 339 341 343 343 344 345 344 344 344 346 347 346 345 345 345 344 345 344 341 342 341 341 341 340 339
343 342 341 342 343 343 343 343 343 343 343 342 341 342 338 338 339 339 339 339 342 344 345 345 345 343 345 345 345 345 344 345 344 344 344 343 342 342 344 344 343 343 343
341 341 342 342 342 343 344 344 343 343 344 343 341 340 340 341 341 339 340 338 338 342 344 344 344 345 345 345 344 344 343 342 337 339 342 341 340 344 343 343 343 343 343
339 340 342 342 343 343 344 343 342 343 344 342 342 341 341 340 340 339 338 339 338 340 342 342 343 343 344 344 342 341 339 338 335 338 339 338 338 339 339 338 338 337 337
339 340 342 343 343 344 344 344 343 342 341 342 342 342 341 341 340 340 339 338 337 338 342 342 343 344 342 342 341 339 338 337 335 335 335 335 334 334 334 335 337 338 340
338 338 340 342 343 344 344 344 343 342 341 341 341 341 341 341 341 340 339 338 339 337 338 339 338 339 339 340 338 338 337 336 337 337 337 338 338 338 338 339 339 339 340
337 337 337 340 342 342 342 342 342 341 342 342 341 341 341 340 340 341 340 339 339 339 336 338 338 336 336 337 336 335 335 335 335 335 336 336 336 336 336 336 337 337 337
336 336 336 337 338 339 339 340 340 340 341 341 341 341 341 342 341 340 341 341 340 338 337 336 334 335 336 335 333 334 333 333 333 333 333 333 333 332 332 332 332 331 331
335 335 335 334 334 336 336 336 336 336 336 336 337 339 339 340 341 341 341 341 339 337 336 332 332 332 332 331 330 330 329 329 327 328 329 329 329 330 330 330 329 328 328
334 334 333 332 332 332 333 333 334 333 334 333 333 334 335 336 338 338 339 339 340 339 336 331 328 327 326 326 325 325 323 323 322 321 325 324 326 326 326 325 325 325 325
334 333 332 331 330 330 330 329 330 329 330 331 331 331 332 333 334 334 336 337 337 338 335 331 326 324 321 322 322 321 320 320 321 322 323 323 322 322 322 321 320 320 320
334 333 332 331 330 329 328 327 326 327 328 329 329 328 329 331 332 332 332 333 334 334 332 329 325 323 321 320 320 318 318 318 317 317 319 318 319 319 317 315 314 313 313
334 332 331 331 330 329 328 327 325 324 324 323 323 324 326 329 330 331 330 330 331 330 329 326 324 323 322 319 319 319 316 315 315 313 312 311 311 311 311 311 310 309 309
333 332 330 330 329 329 328 328 326 325 325 324 321 317 323 325 327 329 329 328 328 328 327 326 325 325 323 323 321 319 316 316 316 314 314 312 312 311 309 308 308 308 308
333 330 329 329 328 328 328 327 327 325 324 321 318 315 319 319 320 323 326 326 325 325 325 326 325 324 324 323 322 319 317 319 317 316 314 312 312 311 310 309 308 307 307
333 330 327 327 327 328 327 326 325 325 322 319 319 318 314 312 312 313 316 319 321 321 322 322 322 321 322 322 321 320 319 318 316 315 313 311 310 310 310 309 307 306 306
331 328 326 325 325 326 327 325 324 323 321 319 318 319 319 317 315 316 312 311 314 315 314 313 310 308 308 316 319 319 318 317 315 315 315 313 311 309 308 307 306 305 305
330 327 324 322 322 322 323 325 323 320 319 316 316 318 319 320 318 318 317 312 310 309 310 309 308 305 304 307 316 316 313 316 317 315 316 314 312 311 310 307 306 306 305
Wind_Speed
13 11 12 12 11 12 12 12 12 13 13 13 15 16 15 14 15 16 15 13 16 18 17 17 18 19 18 17 17 16 16 16 15 16 15 16 14 14 13 14 13 12 12
14 14 13 13 12 13 13 14 14 14 15 16 16 19 17 15 14 15 16 13 14 18 19 18 19 19 19 19 19 19 18 18 18 17 16 17 17 16 15 15 16 15 15
17 14 16 15 13 13 14 14 16 16 18 20 21 19 18 18 18 19 18 19 17 17 20 19 21 20 20 20 20 20 21 21 19 19 19 19 19 18 17 16 16 17 17
19 17 17 20 16 15 16 20 20 19 19 20 20 23 25 22 20 18 21 19 18 18 20 18 19 21 20 21 23 23 23 23 22 21 22 22 21 20 20 20 19 19 19
12 16 14 15 14 13 15 15 16 20 19 18 18 17 17 20 28 22 21 20 20 20 21 21 22 22 23 23 23 24 25 25 25 24 25 23 23 22 22 22 22 22 22
8 10 15 14 11 11 12 15 17 17 16 17 15 16 15 15 17 20 19 19 18 19 21 21 22 24 24 25 25 24 23 27 27 27 26 25 25 23 24 24 24 24 24
7 8 9 9 9 10 12 12 14 18 18 17 10 11 17 18 17 18 18 20 20 19 19 21 23 24 23 22 23 27 27 25 27 28 29 26 23 22 23 26 26 27 26
2 4 7 9 8 10 10 11 11 13 13 15 7 4 1 2 10 15 17 17 19 19 20 21 21 21 22 23 22 20 24 28 28 27 26 27 24 21 19 24 25 26 28
3 4 7 10 10 8 10 10 11 13 13 12 18 5 2 3 2 4 10 10 13 18 18 21 18 17 21 20 21 19 20 19 24 26 28 35 25 22 23 24 24 25 26
5 6 8 8 8 8 9 9 9 12 13 12 14 19 5 3 2 3 2 8 10 14 18 18 14 16 16 15 13 14 14 15 15 16 16 13 15 15 17 18 19 21 22
7 8 7 7 8 7 8 9 9 10 12 12 12 8 18 6 3 3 3 5 11 7 2 8 11 11 13 13 12 9 4 9 14 18 18 15 12 10 10 12 13 15 17
10 9 9 7 7 7 6 5 3 7 9 11 13 13 9 6 7 8 1 0 3 6 6 4 1 5 7 7 3 6 7 8 9 11 13 14 14 15 13 12 14 16 18
12 11 11 10 7 5 4 4 1 2 5 6 9 12 14 11 5 10 7 3 2 2 3 9 5 4 0 4 2 1 1 3 8 7 9 13 13 15 17 19 20 22 22
11 11 12 12 9 5 4 4 5 4 3 3 4 5 6 7 7 8 5 8 2 3 2 4 5 5 5 7 6 2 2 5 5 7 9 9 10 10 11 12 12 11 11
8 8 9 10 11 10 8 8 10 11 8 5 4 5 4 4 6 8 10 13 8 3 1 2 2 4 3 1 3 3 5 7 8 7 5 5 7 8 9 8 7 6 5
7 9 12 11 10 12 12 14 14 15 16 15 12 8 6 4 6 8 9 10 13 11 2 3 3 6 3 1 1 2 4 5 7 8 9 9 10 11 12 13 14 13 15
7 9 11 13 13 12 12 14 15 14 14 14 14 14 13 9 7 4 5 8 11 13 6 4 9 9 5 1 2 4 5 7 8 8 7 7 8 9 9 9 9 9 10
9 10 12 14 15 15 14 14 14 14 14 16 15 14 14 11 11 9 7 6 8 13 9 10 12 7 6 6 7 7 8 9 11 12 9 12 12 12 12 13 13 12 11
9 10 11 14 17 16 17 17 16 17 18 16 15 16 16 14 14 11 9 6 5 7 11 14 9 8 10 8 9 8 8 8 9 9 8 9 11 12 11 11 10 9 8
7 9 9 12 14 15 16 16 17 17 19 20 19 18 16 15 15 14 13 11 10 11 12 16 12 11 10 9 9 9 7 7 8 8 7 7 7 7 9 10 10 11 11
7 7 8 11 11 11 12 13 15 18 19 19 19 18 18 17 15 14 15 15 12 12 13 13 10 9 8 9 7 5 6 7 7 7 9 11 11 11 13 12 12 13 13
8 7 8 9 9 8 9 8 8 11 13 14 15 14 15 16 16 15 14 14 14 13 12 11 9 7 6 4 6 7 9 3 2 3 4 7 7 9 10 10 10 10 10
9 7 9 8 8 7 7 7 7 8 11 13 13 16 15 15 14 14 14 14 14 11 8 6 10 5 2 1 4 7 7 2 0 4 2 3 3 4 5 6 6 6 7
9 6 8 8 8 8 7 7 7 8 9 11 12 12 14 15 16 15 15 17 17 17 14 13 10 9 6 2 2 3 5 2 6 6 2 1 0 1 2 3 4 5 6
10 8 7 7 8 7 5 5 3 5 7 8 9 10 8 8 11 11 12 15 15 15 13 14 13 11 8 3 3 4 7 9 3 5 3 2 2 2 3 3 5 7 7
13 12 9 6 6 5 3 5 3 4 6 6 7 6 7 6 4 6 6 8 11 10 9 9 9 9 9 6 1 5 5 9 3 3 6 5 6 5 2 5 5 6 6
Wind_Direction
236 246 238 228 226 229 228 233 235 241 244 242 241 240 230 232 232 232 233 236 224 228 236 231 224 219 219 222 223 221 221 220 217 225 218 220 221 220 222 219 226 218 211
251 241 243 240 244 245 246 243 245 244 248 247 244 238 238 242 247 237 231 234 240 234 235 238 231 227 226 226 227 227 226 223 226 226 224 227 226 227 229 227 227 230 226
250 261 259 256 262 267 254 245 241 246 249 249 246 247 243 250 250 246 244 241 242 244 235 244 239 238 238 238 238 235 233 231 231 234 233 229 232 232 234 234 236 234 235
248 262 256 261 261 258 251 253 252 255 250 249 250 248 249 253 247 252 247 246 240 244 238 243 241 243 243 240 242 238 240 239 237 232 239 237 236 236 235 238 239 239 238
263 239 256 262 270 266 260 256 252 251 245 248 251 254 250 252 249 255 251 245 244 245 248 252 252 252 249 246 245 243 242 245 244 239 240 242 242 240 240 241 241 242 243
253 254 263 269 269 267 267 259 256 261 251 254 258 256 253 253 247 244 250 247 248 251 255 260 260 255 257 255 254 251 250 249 249 246 247 247 247 249 250 248 248 245 246
266 272 250 267 270 270 270 264 263 260 264 252 245 258 260 258 251 243 251 250 253 259 262 265 267 268 270 264 262 258 256 254 249 249 250 253 250 250 253 253 250 251 250
299 279 270 273 273 279 273 266 257 257 255 244 207 208 323 301 246 251 247 261 258 259 256 259 266 272 279 277 267 264 264 260 256 252 249 253 254 258 262 257 254 257 256
341 325 302 299 291 279 273 270 262 247 243 242 218 183 134 212 331 275 246 268 264 260 258 250 262 271 278 278 277 274 261 255 256 255 252 252 241 254 260 260 257 258 260
19 344 321 307 301 299 296 287 264 248 241 235 222 226 232 157 171 334 7 33 344 276 260 247 255 266 271 273 275 275 271 254 253 263 255 248 249 269 262 256 257 261 263
7 347 332 324 313 310 308 295 275 241 233 234 216 203 215 213 193 32 298 331 3 358 276 246 261 261 259 256 260 276 267 282 279 267 261 264 275 271 272 261 263 266 271
15 8 355 336 321 321 328 317 295 226 226 231 233 223 197 183 204 207 210 282 24 352 50 75 205 265 267 239 246 274 288 284 292 265 259 264 265 272 282 281 285 292 291
33 26 14 3 347 352 17 41 24 231 230 234 224 225 228 222 180 205 182 118 114 321 37 58 77 64 149 266 225 178 316 291 275 284 273 264 272 277 279 284 288 291 292
40 31 26 26 32 47 50 62 82 68 77 142 152 170 187 202 212 206 173 152 135 231 59 91 75 106 120 107 99 116 307 344 326 315 318 318 315 316 308 306 303 311 312
49 44 33 41 51 58 66 80 77 69 83 99 127 152 157 183 190 188 202 194 158 142 165 159 112 117 131 105 6 359 27 353 343 354 0 5 6 8 15 15 9 6 22
71 56 52 57 57 61 67 74 73 71 74 76 80 93 112 151 184 198 210 195 181 152 148 157 154 152 165 202 2 355 19 8 27 45 53 56 58 59 62 65 69 65 58
71 63 61 59 62 64 64 71 71 69 72 72 70 73 73 76 97 142 192 198 187 179 139 129 144 150 132 156 78 87 84 72 60 49 45 43 48 50 60 64 63 65 69
73 70 68 65 63 67 71 69 71 69 69 65 62 65 64 69 72 73 82 114 169 185 163 132 142 136 133 140 129 118 98 89 79 66 65 67 70 73 74 75 74 76 82
85 74 73 70 70 68 72 74 75 75 73 71 70 68 62 65 65 66 74 85 93 159 177 158 135 153 136 141 126 112 97 89 83 78 72 75 80 81 76 70 71 70 73
103 87 84 78 75 75 73 71 70 75 77 75 74 71 67 64 65 65 72 77 99 130 139 149 136 140 146 152 144 129 105 88 76 69 71 65 64 65 66 67 70 73 76
127 104 101 92 80 79 79 73 76 80 78 75 69 68 66 64 66 67 69 73 91 107 122 127 120 134 142 156 171 176 135 110 78 70 75 72 72 77 75 74 76 75 74
152 123 119 109 96 80 84 81 80 82 70 64 63 63 70 67 66 70 75 79 81 100 113 121 121 126 161 201 196 178 157 136 66 97 73 72 74 77 81 82 80 77 73
156 135 127 119 107 99 97 85 89 89 79 76 70 67 74 70 68 74 82 87 86 84 96 121 130 114 118 221 203 180 174 343 60 158 102 74 65 78 91 99 92 83 80
159 148 138 128 111 105 106 97 91 96 95 86 77 75 73 75 74 76 85 89 87 84 84 93 94 81 68 71 142 207 226 166 120 143 40 112 158 85 132 127 116 105 103
163 148 145 140 120 113 136 117 84 95 100 89 84 74 72 83 83 70 78 91 93 91 94 93 86 75 61 79 117 137 159 159 165 202 225 328 183 101 105 155 147 137 131
166 155 146 139 134 120 139 186 165 113 110 93 94 86 71 69 101 72 70 98 100 104 114 102 88 74 63 67 215 277 262 224 180 190 212 215 198 185 202 206 197 180 167